STARLINK-32240, 60438

Orbit data source: Space-Track

STARLINK-32240, 60438 is a payload satellite owned by SpaceX/Seattle (US) in LEO that was launched on Mon, 12 Aug 2024 UTC via an FALCON 9 launch vehicle from the Air Force Eastern Test Range (AFETR). Payload-class satellites include a variety of spacecraft equipped with specific instruments for various scientific and technological missions. These include communications satellites like Starlink; space stations such as the ISS; scientific satellites like the Hubble; Earth observation satellites from companies like Planet Labs, Umbra, and HawkEye 360; GPS; miniature CubeSats for education and research; and military/defense satellites.

Loading next visibility...
Identifier
60438, 2024-144P
Orbit
LEO
Country
Flag of USUS
Related business
Manufacturer
SpaceX/Seattle
Mission
Operational Commercial Communications
Bus & Motor
STARLINK V2M, Unknown motor
Mass
730 kg wet, ~700 kg dry
Launch date (UTC)
2024-08-12 (2 years ago)
Launch vehicle
FALCON 9
Launch site
Air Force Eastern Test Range (AFETR)
Object type
Payload
Rocket body
Debris
Shape & HBR
Box + 2 Pan, 17.7 m
Radar Cross Section
33.884 m², Large (>1 m²)

Expand to show TLE details & history
Last TLE update: 21 hours ago

TLE from 21 hours ago
0 STARLINK-32240
1 60438U 24144P   26170.97012910  .00000558  00000-0  27647-4 0  9999
2 60438  53.1617 100.2893 0001392 107.3016 252.8139 15.34400162105037
Epoch: 2026-06-19T23:16Z
TLE epoch observation values (Epoch: 2026-06-19T23:16:59.154Z)
Latitude
-0.00001°
Longitude
-157.14865°
Altitude
463.886 km
Speed
7.636 km/s
True Right ascension
06h 41m 09s
True Declination
0° 00' 00"
Sunlit
Object was in daylight at epoch
Visualization orbit readout
Latitude
Unknown
Longitude
Unknown
Altitude
Unknown
Speed
Unknown
Apparent Right ascension
Unknown
Apparent Declination
Unknown
Sunlit
N/A
Visualization observer readout
Local Sidereal Time
07:12:43
Azimuth
Unknown
Elevation
Unknown
Doppler factor
Unknown
Orbital elements
Apogee altitude
463.912 km
Perigee altitude
462.007 km
Semi-major axis
6,841.096 km
Eccentricity
0.00014
Inclination
53.1617°
RAAN
100.2893°
Arg. of periapsis
107.3016°
True anomaly
252.79866°
Mean anomaly
252.8139°
Eccentric anomaly
252.80628°
Mean motion
3.83579 °/min
Orbital period
93.85 mins
BSTAR
0.000027647
Loading maneuver chart data...
Computing Atmospheric mass density...
Loading historical data...
Loading historical data...
Loading historical data...
Loading historical data...
Loading historical data...
Loading historical data...
Loading historical data...

Documentation

Showing up to 5 results
|